Weather History for Clinton, MO

Change the Weather History Date:

Tuesday, March 11, 2014

  Actual Average (KSZL) Record (KSZL)
Temperature  
Mean Temperature 61 °F -  
Max Temperature 80 °F 49 °F 78 °F (2014)
Min Temperature 39 °F 29 °F 6 °F (1998)
Degree Days  
Heating Degree Days 4    
Growing Degree Days 11 (Base 50)    
Moisture  
Dew Point 44 °F    
Average Humidity 56    
Maximum Humidity 93    
Minimum Humidity 37    
Precipitation  
Precipitation 0.56 in - - ()
Sea Level Pressure  
Sea Level Pressure 29.58 in    
Wind  
Wind Speed 10 mph (SSW)    
Max Wind Speed 34 mph    
Max Gust Speed 44 mph    
Visibility 10 miles    
Events Rain , Thunderstorm    
Averages and records for this station are not official NWS values.
T = Trace of Precipitation, MM = Missing Value Source: NWS Daily Summary

Daily Weather History Graph

Daily Weather History Graph

Search for Another Location

Airport:

Trip Planner

Search our weather history database for the weather conditions in past years. The results will help you decide how hot, cold, wet, or windy it might be!

Date:

Astronomy

Mar. 11, 2014 Rise Set
Actual Time 7:31 AM CDT 7:17 PM CDT
Civil Twilight 7:05 AM CDT 7:44 PM CDT
Nautical Twilight 6:35 AM CDT 8:15 PM CDT
Astronomical Twilight 6:04 AM CDT 8:45 PM CDT
Moon 2:57 PM CDT (3/11) 4:23 AM CDT (3/11)
Length of Visible Light 12h 38m
Length of Day
11h 46m
Waxing Gibbous, 78% of the Moon is Illuminated
Mar 11
Waxing Gibbous
Mar 16
Full
Mar 23
Last Quarter
Mar 30
New
Apr 7
First Quarter

Hourly Weather History & Observations

Time (CDT) Temp. Windchill Dew Point Humidity Pressure Visibility Wind Dir Wind Speed Gust Speed Precip Events Conditions
12:15 AM 55.4 °F - 33.8 °F 44% 29.71 in 10.0 mi SSW 6.9 mph - N/A   Clear
12:35 AM 55.4 °F - 33.8 °F 44% 29.71 in 10.0 mi SSW 3.5 mph - N/A   Clear
12:55 AM 55.4 °F - 33.8 °F 44% 29.71 in 10.0 mi SSW 4.6 mph - N/A   Clear
1:15 AM 53.6 °F - 33.8 °F 47% 29.70 in 10.0 mi SSW 3.5 mph - N/A   Clear
1:35 AM 53.6 °F - 32.0 °F 44% 29.70 in 10.0 mi Calm Calm - N/A   Clear
1:55 AM 53.6 °F - 32.0 °F 44% 29.69 in 10.0 mi SSW 5.8 mph - N/A   Clear
2:15 AM 53.6 °F - 32.0 °F 44% 29.69 in 10.0 mi SSW 4.6 mph - N/A   Clear
2:35 AM 51.8 °F - 33.8 °F 50% 29.69 in 10.0 mi SSW 3.5 mph - N/A   Clear
2:55 AM 51.8 °F - 33.8 °F 50% 29.68 in 10.0 mi SSW 5.8 mph - N/A   Clear
3:15 AM 51.8 °F - 35.6 °F 54% 29.68 in 10.0 mi SSW 6.9 mph - N/A   Clear
3:35 AM 53.6 °F - 35.6 °F 51% 29.67 in 10.0 mi SSW 8.1 mph - N/A   Clear
3:55 AM 55.4 °F - 35.6 °F 47% 29.66 in 10.0 mi SSW 9.2 mph - N/A   Clear
4:15 AM 55.4 °F - 35.6 °F 47% 29.66 in 10.0 mi SSW 6.9 mph - N/A   Clear
4:35 AM 51.8 °F - 35.6 °F 54% 29.65 in 10.0 mi South 8.1 mph - N/A   Clear
4:55 AM 51.8 °F - 35.6 °F 54% 29.65 in 10.0 mi South 6.9 mph - N/A   Clear
5:15 AM 50.0 °F - 35.6 °F 58% 29.64 in 10.0 mi South 8.1 mph - N/A   Clear
5:35 AM 51.8 °F - 35.6 °F 54% 29.63 in 10.0 mi South 8.1 mph - N/A   Clear
5:55 AM 50.0 °F - 37.4 °F 62% 29.63 in 10.0 mi South 8.1 mph - N/A   Clear
6:15 AM 50.0 °F - 37.4 °F 62% 29.63 in 10.0 mi South 6.9 mph - N/A   Clear
6:35 AM 50.0 °F - 37.4 °F 62% 29.62 in 10.0 mi South 8.1 mph - N/A   Clear
6:55 AM 50.0 °F - 39.2 °F 66% 29.62 in 10.0 mi South 8.1 mph - N/A   Clear
7:15 AM 51.8 °F - 41.0 °F 67% 29.62 in 10.0 mi South 8.1 mph - N/A   Clear
7:35 AM 51.8 °F - 42.8 °F 71% 29.61 in 10.0 mi South 6.9 mph - N/A   Clear
7:55 AM 51.8 °F - 42.8 °F 71% 29.61 in 10.0 mi South 8.1 mph - N/A   Clear
8:15 AM 53.6 °F - 44.6 °F 72% 29.61 in 10.0 mi South 9.2 mph - N/A   Clear
8:35 AM 55.4 °F - 46.4 °F 72% 29.60 in 10.0 mi South 9.2 mph - N/A   Clear
8:55 AM 57.2 °F - 46.4 °F 67% 29.60 in 10.0 mi South 11.5 mph 18.4 mph N/A   Clear
9:15 AM 60.8 °F - 48.2 °F 63% 29.60 in 10.0 mi SSW 12.7 mph 18.4 mph N/A   Clear
9:35 AM 62.6 °F - 48.2 °F 59% 29.60 in 10.0 mi SSW 10.4 mph 18.4 mph N/A   Clear
9:55 AM 62.6 °F - 50.0 °F 63% 29.59 in 10.0 mi SSW 10.4 mph 18.4 mph N/A   Clear
10:15 AM 62.6 °F - 50.0 °F 63% 29.59 in 10.0 mi SSW 9.2 mph - N/A   Clear
10:35 AM 64.4 °F - 51.8 °F 64% 29.58 in 10.0 mi South 13.8 mph - N/A   Clear
10:55 AM 66.2 °F - 51.8 °F 60% 29.57 in 10.0 mi SSW 11.5 mph 20.7 mph N/A   Clear
11:15 AM 69.8 °F - 51.8 °F 53% 29.56 in 10.0 mi South 16.1 mph - N/A   Clear
11:35 AM 71.6 °F - 51.8 °F 50% 29.55 in 10.0 mi South 13.8 mph - N/A   Clear
11:55 AM 71.6 °F - 51.8 °F 50% 29.55 in 10.0 mi SSW 12.7 mph 21.9 mph N/A   Clear
12:15 PM 73.4 °F - 51.8 °F 47% 29.54 in 10.0 mi South 16.1 mph - N/A   Clear
12:35 PM 75.2 °F - 51.8 °F 44% 29.53 in 10.0 mi South 15.0 mph 19.6 mph N/A   Partly Cloudy
12:55 PM 75.2 °F - 51.8 °F 44% 29.53 in 10.0 mi South 13.8 mph 21.9 mph N/A   Clear
1:15 PM 77.0 °F - 51.8 °F 41% 29.52 in 10.0 mi SSW 11.5 mph - N/A   Clear
1:35 PM 78.8 °F - 51.8 °F 39% 29.51 in 10.0 mi SSW 13.8 mph 21.9 mph N/A   Partly Cloudy
1:55 PM 77.0 °F - 51.8 °F 41% 29.50 in 10.0 mi South 12.7 mph 18.4 mph N/A   Clear
2:15 PM 77.0 °F - 51.8 °F 41% 29.48 in 10.0 mi SSW 12.7 mph 21.9 mph N/A   Clear
2:35 PM 78.8 °F - 51.8 °F 39% 29.47 in 10.0 mi SSW 13.8 mph 19.6 mph N/A   Clear
2:55 PM 78.8 °F - 51.8 °F 39% 29.47 in 10.0 mi South 12.7 mph 20.7 mph N/A   Clear
3:15 PM 78.8 °F - 51.8 °F 39% 29.46 in 10.0 mi SSW 10.4 mph 19.6 mph N/A   Clear
3:35 PM 80.6 °F - 51.8 °F 37% 29.46 in 10.0 mi SW 11.5 mph 17.3 mph N/A   Clear
3:55 PM 78.8 °F - 51.8 °F 39% 29.45 in 10.0 mi South 12.7 mph 19.6 mph N/A   Clear
4:15 PM 78.8 °F - 51.8 °F 39% 29.45 in 10.0 mi SSW 12.7 mph - N/A   Partly Cloudy
4:35 PM 80.6 °F - 53.6 °F 39% 29.44 in 10.0 mi South 11.5 mph 16.1 mph N/A   Clear
4:55 PM 78.8 °F - 53.6 °F 42% 29.44 in 10.0 mi South 13.8 mph - N/A   Clear
5:15 PM 78.8 °F - 53.6 °F 42% 29.45 in 10.0 mi SSW 11.5 mph 19.6 mph N/A   Clear
5:35 PM 77.0 °F - 51.8 °F 41% 29.45 in 10.0 mi SSW 9.2 mph - N/A   Clear
5:55 PM 75.2 °F - 51.8 °F 44% 29.45 in 10.0 mi SSW 8.1 mph - N/A   Partly Cloudy
6:15 PM 75.2 °F - 53.6 °F 47% 29.45 in 10.0 mi Calm Calm - N/A   Mostly Cloudy
6:35 PM 73.4 °F - 51.8 °F 47% 29.46 in 10.0 mi SSW 5.8 mph - N/A   Mostly Cloudy
6:55 PM 73.4 °F - 51.8 °F 47% 29.45 in 10.0 mi SW 6.9 mph - N/A   Partly Cloudy
7:15 PM 71.6 °F - 51.8 °F 50% 29.46 in 10.0 mi SW 5.8 mph - N/A   Partly Cloudy
7:35 PM 71.6 °F - 51.8 °F 50% 29.46 in 10.0 mi Calm Calm - N/A   Partly Cloudy
7:55 PM 66.2 °F - 48.2 °F 52% 29.48 in 10.0 mi North 34.5 mph 43.7 mph N/A   Mostly Cloudy
8:15 PM 57.2 °F - 44.6 °F 63% 29.50 in 9.0 mi NNE 28.8 mph 35.7 mph N/A   Overcast
8:35 PM 53.6 °F - 44.6 °F 72% 29.54 in 7.0 mi North 26.5 mph 36.8 mph N/A Rain , Thunderstorm Heavy Rain
8:55 PM 51.8 °F - 44.6 °F 76% 29.59 in 7.0 mi North 23.0 mph 40.3 mph 0.04 in Rain Heavy Rain
9:15 PM 48.2 °F - 44.6 °F 87% 29.61 in 1.5 mi North 27.6 mph 34.5 mph 0.35 in Rain , Thunderstorm Heavy Rain
9:35 PM 46.4 °F 37.2 °F 44.6 °F 93% 29.63 in 3.0 mi North 29.9 mph 34.5 mph 0.50 in   Unknown
9:55 PM 46.4 °F 38.1 °F 42.8 °F 87% 29.65 in 7.0 mi North 24.2 mph 34.5 mph 0.52 in   Overcast
10:15 PM 44.6 °F 35.9 °F 41.0 °F 87% 29.67 in 10.0 mi North 23.0 mph 32.2 mph N/A   Overcast
10:35 PM 44.6 °F 36.4 °F 41.0 °F 87% 29.69 in 10.0 mi North 20.7 mph 32.2 mph N/A   Overcast
10:55 PM 44.6 °F 35.3 °F 39.2 °F 81% 29.70 in 10.0 mi North 26.5 mph 33.4 mph N/A   Overcast
11:15 PM 42.8 °F 33.3 °F 39.2 °F 87% 29.72 in 10.0 mi North 24.2 mph 33.4 mph N/A   Overcast
11:35 PM 42.8 °F 31.8 °F 37.4 °F 81% 29.76 in 10.0 mi North 33.4 mph 40.3 mph N/A   Overcast
11:55 PM 39.2 °F 27.2 °F 37.4 °F 93% 29.78 in 9.0 mi North 31.1 mph 36.8 mph N/A   Overcast